Grand Canyon, AZ

8:31 AM MST on August 16, 2017 (GMT -0700)
Grand Canyon National Park

Weather History for KGCN - December, 2013

Change the Weather History Date:

Friday, December 27, 2013

  Actual Average Record
Temperature  
Mean Temperature 34 °F -  
Max Temperature 52 °F 41 °F 63 °F (1980)
Min Temperature 17 °F 13 °F -18 °F (2008)
Degree Days  
Heating Degree Days 30    
Moisture  
Dew Point 10 °F    
Average Humidity 44    
Maximum Humidity 74    
Minimum Humidity 18    
Precipitation  
Precipitation 0.00 in - - ()
Sea Level Pressure  
Sea Level Pressure 30.34 in    
Wind  
Wind Speed 6 mph (NE)    
Max Wind Speed 13 mph    
Max Gust Speed -    
Visibility 10 miles    
Events      
Averages and records for this station are not official NWS values.
T = Trace of Precipitation, MM = Missing Value Source: NWS Daily Summary

Daily Weather History Graph

Daily Weather History Graph

Search for Another Location

Airport or City:

Trip Planner

Search our weather history database for the weather conditions in past years. The results will help you decide how hot, cold, wet, or windy it might be!

Date:

Astronomy

Dec. 27, 2013 Rise Set
Actual Time 7:37 AM MST 5:21 PM MST
Civil Twilight 7:09 AM MST 5:50 PM MST
Nautical Twilight 6:37 AM MST 6:22 PM MST
Astronomical Twilight 6:06 AM MST 6:53 PM MST
Moon 2:19 AM MST (12/27) 1:29 PM MST (12/27)
Length of Visible Light 10h 41m
Length of Day
9h 44m
Waning Crescent, 28% of the Moon is Illuminated
Dec 27
Waning Crescent
Jan 1
New
Jan 7
First Quarter
Jan 15
Full
Jan 23
Last Quarter

Hourly Weather History & Observations

Time (MST) Temp. Windchill Dew Point Humidity Pressure Visibility Wind Dir Wind Speed Gust Speed Precip Events Conditions
12:54 AM 19.0 °F - 8.1 °F 62% 30.36 in 10.0 mi Calm Calm - N/A   Clear
1:54 AM 25.0 °F 14.2 °F 6.1 °F 45% 30.33 in 10.0 mi NE 11.5 mph - N/A   Clear
2:54 AM 24.1 °F 13.1 °F 6.1 °F 46% 30.32 in 10.0 mi NE 11.5 mph - N/A   Clear
3:54 AM 30.0 °F 20.5 °F 6.1 °F 36% 30.30 in 10.0 mi NE 11.5 mph - N/A   Clear
4:54 AM 28.9 °F - 7.0 °F 40% 30.33 in 10.0 mi Calm Calm - N/A   Clear
5:54 AM 23.0 °F 15.8 °F 8.1 °F 53% 30.42 in 10.0 mi NE 5.8 mph - N/A   Clear
6:54 AM 19.0 °F 12.3 °F 9.0 °F 65% 30.48 in 10.0 mi NE 4.6 mph - N/A   Clear
7:54 AM 17.1 °F - 9.0 °F 71% 30.49 in 10.0 mi Calm Calm - N/A   Clear
8:54 AM 30.0 °F - 12.9 °F 49% 30.46 in 10.0 mi Calm Calm - N/A   Clear
9:54 AM 44.1 °F 38.1 °F 5.0 °F 20% 30.40 in 10.0 mi East 11.5 mph - N/A   Clear
10:54 AM 46.9 °F - 5.0 °F 18% 30.41 in 10.0 mi NE 8.1 mph - N/A   Clear
11:54 AM 50.0 °F - 7.0 °F 18% 30.35 in 10.0 mi NE 9.2 mph - N/A   Clear
12:54 PM 51.1 °F - 8.1 °F 18% 30.33 in 10.0 mi NE 12.7 mph - N/A   Clear
1:54 PM 51.1 °F - 10.0 °F 19% 30.28 in 10.0 mi NE 9.2 mph - N/A   Clear
2:54 PM 52.0 °F - 12.0 °F 20% 30.26 in 10.0 mi NE 8.1 mph - N/A   Clear
3:54 PM 50.0 °F - 12.9 °F 23% 30.24 in 10.0 mi NE 10.4 mph - N/A   Clear
4:54 PM 46.0 °F 41.4 °F 12.9 °F 26% 30.25 in 10.0 mi NE 9.2 mph - N/A   Clear
5:54 PM 36.0 °F 31.1 °F 12.9 °F 39% 30.31 in 10.0 mi NE 5.8 mph - N/A   Clear
6:54 PM 30.9 °F 27.5 °F 12.9 °F 47% 30.35 in 10.0 mi NE 3.5 mph - N/A   Clear
7:54 PM 26.1 °F - 12.9 °F 58% 30.37 in 10.0 mi Calm Calm - N/A   Clear
8:54 PM 21.9 °F - 12.9 °F 68% 30.33 in 10.0 mi Calm Calm - N/A   Clear
9:54 PM 21.0 °F - 14.0 °F 74% 30.27 in 10.0 mi Calm Calm - N/A   Clear
10:54 PM 19.9 °F 13.4 °F 12.9 °F 74% 30.26 in 10.0 mi NE 4.6 mph - N/A   Clear
11:54 PM 21.0 °F - 14.0 °F 74% 30.22 in 10.0 mi Calm Calm - N/A   Clear